DW3384 Weather Reports


Display with metric or nautical units.
time (UTC)temp
F
wind
direction
speed
MPH
gust
MPH
rain 1hr
in
rain 24hr
in
rain mn
in
humidity
%
barometer
mb
20260507021549 50 345 4.0 8.0 0.00 0.00 0.00 57 1015.5
20260507020106 51 5 5.0 9.0 0.00 0.00 0.00 57 1015.4
20260507014552 51 317 3.0 9.0 0.00 0.00 0.00 55 1015.1
20260507013052 52 325 2.0 9.0 0.00 0.00 0.00 54 1014.6
20260507011545 53 5 1.0 8.0 0.00 0.00 0.00 53 1014.0
20260507010045 54 9 1.0 5.0 0.00 0.00 0.00 51 1013.6
20260507004552 54 40 3.0 8.0 0.00 0.00 0.00 51 1013.2
20260507003047 55 336 3.0 10.0 0.00 0.00 0.00 50 1013.2
20260507001546 56 34 4.0 9.0 0.00 0.00 0.00 49 1013.4
20260507000040 57 9 2.0 8.0 0.00 0.00 0.00 49 1013.4
20260506234544 58 332 1.0 9.0 0.00 0.00 0.00 49 1013.1
20260506233046 58 42 1.0 5.0 0.00 0.00 0.00 49 1013.1
20260506231538 59 37 2.0 6.0 0.00 0.00 0.00 48 1013.1
20260506230046 58 50 2.0 6.0 0.00 0.00 0.00 49 1013.1
20260506224537 59 341 2.0 11.0 0.00 0.00 0.00 48 1013.1
20260506223042 59 77 1.0 5.0 0.00 0.00 0.00 48 1013.0
20260506221533 58 55 1.0 7.0 0.00 0.00 0.00 50 1013.0
20260506220030 57 156 1.0 4.0 0.00 0.00 0.00 52 1013.0
20260506214539 56 321 2.0 8.0 0.00 0.00 0.00 52 1013.3
20260506213029 56 360 2.0 12.0 0.00 0.00 0.00 52 1013.5
20260506211529 56 14 2.0 9.0 0.00 0.00 0.00 52 1013.7
20260506210027 56 17 2.0 6.0 0.00 0.00 0.00 51 1013.7
20260506204527 56 26 2.0 10.0 0.00 0.00 0.00 52 1013.6
20260506203023 55 64 2.0 8.0 0.00 0.00 0.00 52 1013.7
20260506201521 55 21 2.0 7.0 0.00 0.00 0.00 53 1013.8
20260506200016 54 82 3.0 9.0 0.00 0.00 0.00 53 1013.7
20260506194512 54 18 2.0 11.0 0.00 0.00 0.00 54 1013.8
20260506193010 53 129 2.0 12.0 0.00 0.00 0.00 55 1013.8
20260506191509 53 355 3.0 11.0 0.00 0.00 0.00 54 1013.8
20260506190009 53 5 2.0 11.0 0.00 0.00 0.00 54 1013.9
20260506184503 52 71 2.0 8.0 0.00 0.00 0.00 56 1014.2
20260506183005 52 102 3.0 8.0 0.00 0.00 0.00 56 1014.5
20260506181623 51 98 1.0 9.0 0.00 0.00 0.00 57 1014.7
20260506180058 51 342 1.0 5.0 0.00 0.00 0.00 58 1014.8
20260506174556 51 336 1.0 9.0 0.00 0.00 0.00 58 1014.7
20260506173101 50 76 3.0 13.0 0.00 0.00 0.00 59 1014.7
20260506171553 50 80 3.0 11.0 0.00 0.00 0.00 60 1014.9
20260506170055 50 81 3.0 10.0 0.00 0.00 0.00 60 1014.8
20260506164549 49 22 1.0 10.0 0.00 0.00 0.00 61 1014.7
20260506163047 49 44 6.0 12.0 0.00 0.00 0.00 62 1014.5
20260506161547 48 32 2.0 11.0 0.00 0.00 0.00 63 1014.3
20260506160052 48 74 1.0 10.0 0.00 0.00 0.00 64 1013.9
20260506154540 47 197 3.0 13.0 0.00 0.00 0.00 65 1013.9
20260506153059 47 92 6.0 11.0 0.00 0.00 0.00 65 1013.6
20260506151543 47 56 7.0 16.0 0.00 0.00 0.00 66 1013.3
20260506150047 46 95 8.0 14.0 0.00 0.00 0.00 68 1012.9
20260506144537 46 77 4.0 12.0 0.00 0.00 0.00 69 1013.5
20260506143037 46 107 4.0 11.0 0.00 0.00 0.00 70 1013.3
20260506141536 46 198 4.0 15.0 0.00 0.00 0.00 72 1012.4
20260506140035 45 107 6.0 13.0 0.00 0.00 0.00 74 1012.8
20260506134533 44 45 2.0 8.0 0.00 0.00 0.00 76 1014.0
20260506133032 44 89 8.0 14.0 0.00 0.00 0.00 77 1013.2
20260506131538 44 32 1.0 9.0 0.00 0.00 0.00 78 1014.1
20260506130028 44 61 2.0 8.0 0.00 0.00 0.00 78 1013.4
20260506124527 44 65 2.0 8.0 0.00 0.00 0.00 78 1013.5
20260506123025 44 327 1.0 8.0 0.00 0.00 0.00 78 1013.3
20260506121523 44 331 2.0 7.0 0.00 0.00 0.00 78 1012.9
20260506120021 44 101 1.0 8.0 0.00 0.00 0.00 78 1012.3
20260506114521 44 118 0.0 8.0 0.00 0.00 0.00 78 1012.2
20260506113029 44 38 3.0 9.0 0.00 0.00 0.00 77 1012.1
20260506111513 44 107 2.0 8.0 0.00 0.00 0.00 76 1011.9
20260506110011 44 34 2.0 7.0 0.00 0.00 0.00 75 1011.8
20260506104507 45 5 2.0 8.0 0.00 0.00 0.00 74 1011.8
20260506103006 46 51 2.0 9.0 0.00 0.00 0.00 72 1011.5
20260506101501 46 99 3.0 10.0 0.00 0.00 0.00 69 1010.9
20260506100100 46 77 1.0 5.0 0.00 0.00 0.00 69 1010.7
20260506094559 46 360 3.0 8.0 0.00 0.00 0.00 68 1010.6
20260506093058 46 86 1.0 4.0 0.00 0.00 0.00 68 1010.7
20260506091601 46 32 1.0 8.0 0.00 0.00 0.00 68 1010.4
20260506084602 46 254 0.0 11.0 0.00 0.00 0.00 68 1009.6
20260506083055 46 50 3.0 9.0 0.00 0.00 0.00 67 1009.2
20260506081554 47 74 2.0 5.0 0.00 0.00 0.00 66 1010.7
20260506073047 47 74 0.0 8.0 0.00 0.00 0.00 62 1010.0
20260506071546 47 69 0.0 8.0 0.00 0.00 0.00 61 1009.5
20260506061544 47 102 2.0 10.0 0.00 0.00 0.00 62 1009.5
20260506044525 48 65 4.0 17.0 0.00 0.00 0.00 70 1008.0
20260506043021 48 88 4.0 12.0 0.00 0.00 0.00 69 1007.4
20260506041518 48 70 6.0 14.0 0.00 0.00 0.00 69 1007.4
20260506040021 49 80 3.0 12.0 0.00 0.00 0.00 68 1007.2
20260506034520 49 94 3.0 13.0 0.00 0.00 0.00 67 1007.1
20260506033010 49 82 2.0 10.0 0.00 0.00 0.00 66 1007.0
20260506031506 49 100 4.0 11.0 0.00 0.00 0.00 66 1006.6
20260506030015 50 61 2.0 6.0 0.00 0.00 0.00 65 1006.2
20260506024508 50 360 2.0 8.0 0.00 0.00 0.00 65 1006.2
20260506023000 50 267 1.0 9.0 0.00 0.00 0.00 64 1006.2